Location: Newark
(43.6583°N, 1.6617°E)
Time: 08:48:52
(UTC+00:00)

Transit 4A - Pass Details

Date: 28 August 2019
Orbit: 865 x 980 km, 66.8° (Epoch: 15 September)

Event Time Altitude Azimuth Distance (km) Brightness Sun altitude
Rises 00:05:44 0° 333° (NNW) 3,645 11.7 -36.4°
Reaches altitude 10° 00:08:48 10° 346° (NNW) 2,679 11.0 -36.4°
Maximum altitude 00:13:55 26° 41° (NE) 1,753 9.7 -36.3°
Enters shadow 00:15:45 23° 68° (ENE) 1,883 9.7 -36.3°
Drops below altitude 10° 00:18:55 10° 97° (E) 2,602 - -36.2°
Sets 00:21:49 0° 110° (ESE) 3,520 - -36.1°
